Location: Kali�te
(48.8366°N, 19.2182°E)
Time: 11:19:08
(UTC+00:00)

Daily predictions for brighter satellites

Satellite Brightness Start Highest point End
(mag) Time Altitude Azimuth Time Altitude Azimuth Time Altitude Azimuth
Tsikada Rocket 4.2 15:11:54 10° S 15:18:20 84° W 15:24:46 10° N
Cosmos 1844 Rocket 2.9 15:13:45 10° NNW 15:19:22 81° WSW 15:24:56 10° SSE
Cosmos 494 Rocket 4.1 15:16:06 10° S 15:21:18 65° ESE 15:26:32 10° NNE
Cosmos 1733 Rocket 4.0 15:20:36 10° NNE 15:24:21 27° ENE 15:28:06 10° SE
Cosmos 1269 Rocket 4.2 15:21:06 10° S 15:26:18 60° ESE 15:31:33 10° NNE
OPS 6432 4.4 15:24:16 10° NW 15:27:27 77° NE 15:31:29 10° SE
Cosmos 1536 4.3 15:25:07 10° NNE 15:27:45 17° ENE 15:30:22 10° ESE
NOSS 2-2 (E) 4.3 15:24:19 10° WSW 15:27:53 40° NW 15:32:10 10° NNE
Cosmos 2237 4.3 15:22:57 10° SSW 15:28:42 87° WNW 15:34:29 10° NNE
SMAP 3.4 15:24:42 10° SE 15:29:05 43° ENE 15:33:30 10° N
PSLV R/B 4.5 15:25:13 10° NNE 15:29:09 40° E 15:33:03 10° S
Cosmos 1602 3.7 15:26:20 10° N 15:30:13 75° ENE 15:34:07 10° SSE
ATLAS 2AS CENTAUR R/B 3.2 15:22:24 10° SW 15:30:24 88° SE 15:38:27 10° NE
Cosmos 1869 Rocket 3.6 15:26:58 10° N 15:31:23 90° ENE 15:35:50 10° S
Cosmos 1500 4.2 15:28:58 10° NNE 15:32:07 24° ENE 15:35:13 10° SE
Cosmos 1943 Rocket 4.1 15:31:07 10° NNE 15:32:08 10° NNE 15:33:09 10° NE
Cosmos 1340 2.6 15:30:09 10° N 15:33:57 82° ENE 15:37:44 10° SSE
CZ-4 R/B 3.0 15:33:43 10° E 15:35:38 13° ENE 15:37:32 10° NNE
ALOS 3.2 15:31:58 10° S 15:36:30 52° W 15:41:06 10° NNW
COSMOS 2428 3.1 15:34:22 10° S 15:39:45 46° ESE 15:45:10 10° NE
Cosmos 304 Rocket 3.7 15:35:44 10° NNW 15:40:33 72° ENE 15:45:21 10° SSE
H-2A R/B 3.0 15:37:06 10° SE 15:40:36 42° ENE 15:44:07 10° N
Meteor 1-5 Rocket 4.3 15:36:36 10° N 15:42:05 50° ENE 15:47:21 10° SSE
Lacrosse 5 rocket 2.8 15:39:46 10° S 15:43:11 23° SE 15:46:07 12° E
Cosmos 1302 Rocket 4.0 15:38:30 10° NNW 15:43:49 80° ENE 15:49:04 10° SSE
Cosmos 332 Rocket 4.4 15:40:34 10° NNW 15:45:23 62° WSW 15:50:09 10° S
BREEZE-M DEB (TANK) 3.2 15:45:25 10° W 15:48:33 41° SSW 15:50:40 10° SE
IRS-1C Rocket 4.0 15:43:52 10° SSE 15:49:07 75° ENE 15:54:25 10° NNW
YAOGAN 6 3.9 15:46:58 10° ESE 15:49:31 19° ENE 15:52:05 10° NNE
Cosmos 2251 Rocket 4.4 15:46:50 10° SSE 15:51:25 30° E 15:55:43 11° NE
SL-4 R/B 2.3 15:48:47 10° SW 15:52:23 49° SSE 15:55:27 15° ENE
SeaSat 1 4.2 15:51:27 12° NE 15:52:51 13° NNE 15:55:11 10° N
Okean O Rocket 3.0 15:49:41 10° S 15:53:49 43° W 15:57:59 10° NNW
Helios 1A Rocket 4.4 15:50:40 10° S 15:54:35 41° W 15:58:29 10° NNW
COSMOS 2455 4.0 15:49:38 10° WSW 15:55:13 38° NW 16:00:49 10° NNE
Cosmos 2333 4.2 15:53:01 10° SSW 15:58:45 88° ESE 16:04:34 10° NNE
NOSS 2 (A) 3.8 15:57:07 10° NW 15:59:39 86° ENE 16:01:59 10° SE
Cosmos 1782 3.6 15:57:41 10° SSW 16:01:37 53° WNW 16:05:32 10° N
Cosmos 1862 Rocket 4.0 15:58:18 10° SSE 16:02:21 40° E 16:06:28 10° NNE
CENTAUR R/B 4.2 15:54:42 10° NW 16:02:25 51° WSW 16:10:41 10° SSE
USA 215 3.4 15:56:48 13° NE 16:02:47 70° NNW 16:09:16 10° WSW
Cosmos 2322 3.9 15:58:35 10° SW 16:04:18 75° WNW 16:10:01 10° NNE
ERBS 4.0 16:01:46 10° WNW 16:04:51 36° SW 16:07:57 10° SSE
Okean-O 2.7 16:01:56 10° SSE 16:06:15 54° ENE 16:10:36 10° N
Cosmos 2279 Rocket 4.2 16:00:02 10° NNW 16:06:19 78° W 16:12:32 10° S
Meteor 2-6 Rocket 4.1 16:01:04 10° S 16:06:27 80° E 16:11:53 10° NNE
Cosmos 1315 Rocket 3.3 16:02:39 10° SSW 16:06:36 64° WNW 16:10:38 10° N
Cosmos 1346 Rocket 4.0 16:03:29 10° NNW 16:07:17 46° W 16:11:06 10° S
Cosmos 2278 Rocket 2.1 16:07:03 10° NNW 16:12:44 71° ENE 16:18:22 10° SE
AQUARIUS 4.3 16:10:38 10° SSE 16:15:08 80° WSW 16:19:40 10° NNW
Envisat 3.0 16:10:22 10° SSE 16:15:22 61° ENE 16:20:23 10° N
Cosmos 1666 3.3 16:13:35 10° N 16:16:58 31° ENE 16:20:19 10° SE
Meteor 1-10 Rocket 4.2 16:12:16 10° S 16:17:48 87° E 16:23:26 10° NNE
Cosmos 1707 Rocket 4.0 16:13:57 10° SSW 16:18:23 65° WNW 16:22:52 10° N
Cosmos 2360 Rocket 3.4 16:15:37 10° WSW 16:20:52 38° NW 16:26:11 10° NNE
STARLINK-67 3.0 16:23:10 10° W 16:25:53 51° NNW 16:26:28 41° NNE
Cosmos 2369 Rocket 3.8 16:23:53 10° N 16:27:19 16° NE 16:27:19 16° NE
SL-16 R/B 3.6 16:24:52 10° SE 16:28:00 18° ESE 16:28:00 18° ESE
Nadezhda 4 Rocket 4.0 16:22:22 10° S 16:28:40 70° E 16:34:57 10° NNE
Cosmos 1992 Rocket 3.9 16:24:24 10° NNW 16:29:39 78° ENE 16:34:52 10° SSE
Meteor 1-11 Rocket 3.9 16:25:05 10° NNW 16:31:05 83° W 16:37:03 10° S
Cosmos 2333 Rocket 2.4 16:25:33 10° SSW 16:31:17 76° WNW 16:36:30 13° NNE
Cosmos 1908 Rocket 3.6 16:31:12 10° N 16:35:34 55° ENE 16:39:52 10° SSE
COSMO-SKYMED 1 2.8 16:34:55 25° NE 16:37:06 47° E 16:41:17 10° S
Meteor 1-27 Rocket 3.7 16:32:58 10° S 16:38:41 81° E 16:44:34 10° NNE
RESURS DK-1 2.4 16:34:49 10° SSW 16:38:56 77° WNW 16:41:16 25° NNE
Shenzhou-11 Module 3.5 16:37:19 10° SW 16:39:32 22° S 16:39:51 22° SSE
Cosmos 2237 Rocket 2.3 16:35:24 10° S 16:40:56 55° ESE 16:43:57 27° NE
ATLAS 3B R/B 4.5 16:36:15 10° NW 16:42:06 33° WSW 16:48:04 10° S
ISS -3.2 16:39:32 10° WNW 16:42:50 56° SSW 16:44:04 33° SE
STARLINK-46 2.7 16:40:49 10° WSW 16:43:16 65° SSW 16:43:16 65° SSW
NOSS 3-4 (A) 4.0 16:37:46 10° WSW 16:43:42 53° NW 16:48:18 19° NNE
NOSS 3-4 (C) 4.0 16:37:52 10° WSW 16:43:48 53° NW 16:48:23 19° NNE
Cosmos 1812 3.0 16:42:14 10° SSW 16:46:05 67° W 16:49:28 13° N
Cosmos 2322 Rocket 4.4 16:42:22 10° W 16:46:09 18° NW 16:49:58 10° N
YAOGAN 1 2.6 16:43:45 10° SSE 16:47:58 55° ENE 16:52:13 10° N
COBE Rocket 4.4 16:44:37 10° N 16:49:10 55° WNW 16:53:42 10° SSW
Exosat Rocket 3.5 16:44:36 10° SSW 16:49:57 88° WNW 16:53:10 23° NNE
Cosmos 2026 Rocket 4.1 16:45:40 10° SSE 16:51:26 48° E 16:56:14 15° NNE
Cosmos 1900 4.2 16:47:11 10° NW 16:52:07 88° SW 16:56:29 13° SE
NOSS 5 (C) 4.5 16:49:14 10° NW 16:52:13 60° NNE 16:52:13 60° NNE
SL-16 R/B 4.5 16:49:05 10° WNW 16:52:26 16° NNW 16:55:48 10° N
Cosmos 2219 Rocket 2.9 16:52:53 10° SW 16:58:21 51° NW 17:02:43 16° NNE
Ariane Rocket 4.1 17:00:26 27° NNE 17:00:26 27° NNE 17:03:09 10° N
BREEZE-M R/B 2.4 16:56:12 10° W 17:01:11 77° N 17:01:16 76° NNE
SKYMED 3 4.4 16:59:22 33° NNE 17:01:18 83° E 17:05:39 10° SSW
Cosmos 1536 3.7 17:00:35 10° NNW 17:04:31 51° W 17:08:23 10° S
Okean 1-7 3.4 17:01:59 10° S 17:05:17 46° SE 17:05:17 46° SE
CZ-4 R/B 1.5 17:06:16 10° S 17:10:11 69° WSW 17:14:04 10° NNW
Cosmos 1980 3.6 17:05:32 10° SSW 17:11:12 86° WNW 17:13:46 34° NNE
Cosmos 2297 3.6 17:07:19 10° NNW 17:13:03 68° ENE 17:14:46 45° SE
Cosmos 1627 Rocket 4.3 17:08:12 10° S 17:14:17 75° E 17:20:17 11° NNE
Cosmos 1943 Rocket 3.3 17:12:45 10° NNW 17:16:12 27° NNE 17:16:12 27° NNE
CSL-04 Rocket 3.7 17:16:24 10° S 17:21:41 77° WSW 17:27:00 10° NNW
Lacrosse 5 rocket 1.5 17:17:51 10° WSW 17:21:46 68° WNW 17:21:46 68° WNW
ATLAS 2AS CENTAUR R/B 4.0 17:14:55 10° W 17:22:21 39° NNW 17:26:45 22° NNE
YAOGAN 6 4.1 17:19:31 10° SSW 17:22:46 35° W 17:26:07 10° NNW
COSMOS 2428 4.0 17:18:56 10° WSW 17:24:08 36° NW 17:27:49 18° N
SKYMED 2 4.1 17:23:37 34° N 17:25:17 58° WNW 17:29:32 10° SSW
Cosmos 2195 Rocket 4.5 17:21:28 10° S 17:27:40 82° W 17:34:00 10° N
SeaSat 1 3.5 17:31:15 33° N 17:31:15 33° N 17:34:12 10° NNW
Cosmos 1782 Rocket 4.0 17:25:27 10° NNW 17:35:19 - S 17:28:56 54° NNW
Cosmos 292 Rocket 4.4 17:26:02 10° NNW 17:30:48 55° WSW 17:35:32 10° S
SL-4 R/B 2.8 17:28:08 10° W 17:31:03 47° WNW 17:31:03 47° WNW
Cosmos 1092 Rocket 4.4 17:26:58 10° SSW 17:33:13 64° WNW 17:39:29 10° N
Cosmos 2251 Rocket 4.5 17:28:27 10° SW 17:33:31 44° WNW 17:36:13 25° N
NOSS 0 Rocket 4.4 17:28:25 10° SW 17:34:32 58° NW 17:37:29 31° NNE
Cosmos 921 Rocket 4.4 17:34:14 10° NNW 17:36:26 30° NNW 17:36:26 30° NNW
Cosmos 1703 Rocket 4.2 17:38:13 10° SSW 17:42:36 54° WNW 17:42:45 53° WNW
USA 215 3.8 17:44:09 41° NNE 17:45:19 45° N 17:51:27 10° WNW
Cosmos 2344 4.3 17:48:27 10° NW 17:57:23 57° NE 17:59:08 53° ENE
S3M 4.4 17:55:35 10° N 18:00:12 52° N 18:00:12 52° N
Cosmos 1867 4.4 17:56:44 10° NW 18:00:20 42° NNW 18:00:20 42° NNW
SL-16 R/B 3.1 18:06:20 10° SSW 18:09:56 41° SW 18:09:56 41° SW
Cosmos 2369 Rocket 3.9 18:06:58 10° NNW 18:09:08 24° NNW 18:09:08 24° NNW
Cosmos 2333 Rocket 4.3 18:12:29 10° W 18:16:35 20° NW 18:18:32 17° NNW
NOSS 3-1 (C) 4.4 18:17:29 10° NW 18:22:54 50° N 18:22:54 50° N
Cosmos 2237 Rocket 3.6 18:20:15 10° WSW 18:25:18 32° NW 18:25:49 31° NW
USA 229 DEB 4.5 18:24:32 10° NW 18:29:29 46° NNW 18:29:29 46° NNW
USA 229 4.5 18:24:39 10° NW 18:29:34 45° NNW 18:29:34 45° NNW
Cosmos 1943 Rocket 4.5 18:56:22 10° NW 18:57:45 18° NW 18:57:45 18° NW
